1508382001.13,2353,13.56,73798.8,0.43,-33.37,-35.47,0,*7C
1508382002.34,2354,13.56,73806.0,0.43,-33.21,-35.41,0,*7A
1508382003.6,2355,13.56,73806.0,0.41,-33.09,-35.41,0,*73
1508382004.83,2356,13.56,73808.3,0.41,-33.21,-35.41,0,*7A
1508382006.04,2357,13.56,73810.8,0.41,-33.21,-35.47,0,*7D
1508382007.25,2358,13.56,73812.5,0.41,-33.21,-35.47,0,*72
1508382008.46,2359,13.56,73810.0,0.39,-32.97,-35.13,0,*71
1508382009.67,2360,13.56,73810.0,0.39,-32.57,-34.83,0,*7F
1508382010.91,2361,13.56,73810.0,0.41,-32.85,-35.13,0,*76
1508382012.13,2362,13.56,73800.5,0.39,-32.79,-35.13,0,*79
1508382013.34,2363,13.56,73788.5,0.39,-32.63,-35.01,0,*70
1508382014.53,2364,13.56,73788.8,0.39,-32.57,-34.77,0,*70
1508382015.76,2365,13.56,73794.3,0.39,-32.63,-34.83,0,*7D
1508382017.02,2366,13.56,73798.3,0.37,-32.85,-35.23,0,*73
1508382018.2,2367,13.56,73798.5,0.39,-32.91,-35.17,0,*7E
1508382019.43,2368,13.56,73796.5,0.37,-32.63,-34.89,0,*74
1508382020.64,2369,13.56,73794.5,0.39,-32.57,-34.83,0,*76
1508382021.85,2370,13.56,73800.0,0.41,-32.57,-34.71,0,*7C
1508382023.08,2371,13.56,73802.0,0.41,-32.35,-34.65,0,*7C
1508382024.31,2372,13.56,73802.8,0.41,-32.35,-34.65,0,*7F
1508382025.52,2373,13.56,73798.3,0.41,-32.39,-34.71,0,*77
1508382026.73,2374,13.56,73800.8,0.41,-32.35,-34.35,0,*7C
1508382027.94,2375,13.56,73796.8,0.43,-32.39,-34.53,0,*73
1508382029.17,2376,13.56,73800.3,0.43,-32.29,-34.65,0,*74
1508382030.36,2377,13.56,73794.8,0.43,-32.39,-34.71,0,*71
1508382031.54,2378,13.56,73794.3,0.43,-32.51,-34.71,0,*70
1508382032.75,2379,13.56,73798.0,0.43,-32.85,-35.13,0,*7D
1508382033.95,2380,13.56,73800.3,0.43,-32.91,-35.23,0,*7D
1508382035.21,2381,13.56,73802.0,0.41,-32.75,-35.23,0,*74
1508382036.42,2382,13.56,73802.3,0.43,-32.57,-34.95,0,*79
1508382037.63,2383,13.56,73802.5,0.43,-32.85,-34.89,0,*7A
1508382038.87,2384,13.56,73802.3,0.41,-32.85,-35.13,0,*7D
1508382040.05,2385,13.56,73806.0,0.43,-32.91,-35.13,0,*7B
1508382041.27,2386,13.56,73802.8,0.41,-32.91,-35.23,0,*79
1508382042.53,2387,13.56,73806.3,0.41,-32.85,-35.07,0,*7B
1508382043.76,2388,13.56,73804.5,0.41,-33.03,-35.23,0,*7D
1508382044.99,2389,13.56,73806.0,0.41,-32.85,-35.13,0,*70
1508382046.25,2390,13.56,73810.5,0.41,-33.09,-35.23,0,*7E
1508382047.48,2391,13.56,73800.8,0.41,-32.57,-34.95,0,*79
1508382048.72,2392,13.56,73800.0,0.43,-32.85,-35.07,0,*7D
1508382049.9,2393,13.56,73802.8,0.43,-32.91,-35.13,0,*7C
1508382051.16,2394,13.56,73802.5,0.41,-32.75,-35.07,0,*76
1508382052.34,2395,13.56,73800.5,0.43,-32.69,-34.89,0,*7F
1508382053.6,2396,13.56,73802.3,0.41,-32.85,-34.95,0,*71
1508382054.86,2397,13.56,73806.3,0.41,-32.85,-34.95,0,*70
1508382056.05,2398,13.56,73810.8,0.43,-32.57,-34.77,0,*7E
1508382057.26,2399,13.56,73800.8,0.41,-32.51,-34.71,0,*7D
1508382058.44,2400,13.56,73802.0,0.43,-32.39,-34.71,0,*76
1508382059.63,2401,13.56,73796.5,0.43,-32.69,-34.77,0,*74
1508382060.84,2402,13.56,73792.0,0.41,-32.57,-34.77,0,*78
1508382062.05,2403,13.56,73800.5,0.41,-32.69,-34.89,0,*75
1508382063.28,2404,13.56,73800.8,0.41,-32.51,-34.53,0,*7E
1508382064.51,2405,13.56,73800.8,0.41,-32.39,-34.53,0,*71
1508382065.72,2406,13.56,73796.3,0.41,-32.35,-34.47,0,*7B
1508382066.94,2407,13.56,73792.8,0.41,-32.35,-34.53,0,*7F
1508382068.17,2408,13.56,73798.5,0.41,-32.19,-34.13,0,*7A
1508382069.4,2409,13.56,73796.3,0.41,-32.13,-34.31,0,*71
1508382070.63,2410,13.56,73788.3,0.43,-32.19,-34.31,0,*71
1508382071.83,2411,13.56,73790.8,0.43,-32.13,-34.31,0,*7A
1508382073.05,2412,13.56,73790.0,0.45,-32.29,-34.31,0,*76
1508382074.26,2413,13.56,73790.0,0.45,-32.29,-34.41,0,*70
1508382075.44,2414,13.56,73792.5,0.45,-32.35,-34.47,0,*7C
1508382076.61,2415,13.56,73802.0,0.45,-32.23,-34.25,0,*7E
1508382077.79,2416,13.56,73796.0,0.45,-32.13,-34.41,0,*7C
1508382078.99,2417,13.56,73800.0,0.45,-32.29,-34.41,0,*74
1508382080.23,2418,13.56,73802.0,0.47,-32.45,-34.47,0,*75
1508382081.42,2419,13.56,73800.0,0.45,-32.51,-34.71,0,*76
1508382082.64,2420,13.56,73800.3,0.45,-32.51,-34.65,0,*79
1508382083.85,2421,13.56,73800.8,0.45,-32.51,-34.83,0,*70
1508382085.08,2422,13.56,73802.0,0.45,-32.63,-34.83,0,*72
1508382086.29,2423,13.56,73802.3,0.45,-32.63,-34.71,0,*7E
1508382087.48,2424,13.56,73796.5,0.43,-32.69,-34.89,0,*72
1508382088.71,2425,13.56,73802.8,0.43,-32.85,-34.95,0,*7C
1508382089.92,2426,13.56,73800.8,0.43,-32.85,-34.89,0,*72
1508382091.13,2427,13.56,73802.3,0.43,-32.39,-34.53,0,*73
1508382092.33,2428,13.56,73800.8,0.43,-32.35,-34.35,0,*70
1508382093.54,2429,13.56,73802.0,0.43,-32.51,-34.65,0,*76
1508382094.75,2430,13.56,73804.8,0.45,-32.45,-34.59,0,*72
1508382095.97,2431,13.56,73802.8,0.47,-32.69,-34.71,0,*75
1508382097.23,2432,13.56,73800.5,0.41,-32.75,-34.95,0,*77
1508382098.44,2433,13.56,73802.8,0.43,-33.03,-35.07,0,*7E
1508382099.64,2434,13.56,73798.3,0.43,-33.21,-35.23,0,*7F
1508382100.88,2435,13.56,73796.8,0.41,-33.27,-35.29,0,*70
1508382102.08,2436,13.56,73798.5,0.43,-33.21,-35.23,0,*7D
1508382103.32,2437,13.56,73798.3,0.41,-32.85,-34.77,0,*71
1508382104.53,2438,13.56,73798.0,0.43,-32.75,-34.89,0,*72
1508382105.73,2439,13.56,73798.5,0.41,-32.57,-34.89,0,*71
1508382106.94,2440,13.56,73798.8,0.41,-32.39,-34.47,0,*75
1508382108.13,2441,13.56,73796.5,0.43,-32.69,-34.89,0,*71
1508382109.31,2442,13.56,73798.3,0.43,-32.57,-34.71,0,*78
1508382110.52,2443,13.56,73802.3,0.41,-32.69,-34.77,0,*70
1508382111.73,2444,13.56,73802.3,0.41,-32.69,-34.89,0,*76
1508382113.0,2445,13.56,73802.8,0.41,-32.75,-34.95,0,*77
1508382114.26,2446,13.56,73802.8,0.41,-32.85,-34.95,0,*7B
1508382115.51,2447,13.56,73806.5,0.41,-32.85,-35.07,0,*70
1508382116.77,2448,13.56,73802.8,0.41,-32.85,-35.07,0,*7F
1508382117.96,2449,13.56,73804.0,0.39,-32.91,-35.13,0,*71
1508382119.16,2450,13.56,73804.8,0.39,-32.97,-35.17,0,*7B
1508382120.39,2451,13.56,73806.0,0.41,-32.91,-35.23,0,*74
1508382121.6,2452,13.56,73810.8,0.41,-33.03,-35.29,0,*77
1508382122.81,2453,13.56,73804.5,0.39,-33.27,-35.47,0,*77
1508382124.05,2454,13.56,73810.8,0.37,-33.21,-35.53,0,*7D
1508382125.28,2455,13.56,73806.3,0.37,-33.15,-35.41,0,*78
1508382126.5,2456,13.56,73808.0,0.39,-32.79,-35.13,0,*79
1508382127.69,2457,13.56,73804.5,0.39,-32.91,-35.13,0,*7E
1508382128.92,2458,13.56,73804.0,0.37,-33.03,-35.41,0,*72
1508382130.16,2459,13.56,73806.0,0.37,-33.03,-35.35,0,*70
1508382131.39,2460,13.56,73806.8,0.37,-33.15,-35.41,0,*7E
1508382132.62,2461,13.56,73806.5,0.37,-33.03,-35.41,0,*78
1508382133.84,2462,13.56,73804.8,0.35,-33.21,-35.41,0,*79
1508382135.05,2463,13.56,73806.3,0.35,-33.03,-35.35,0,*7B
1508382136.32,2464,13.56,73804.3,0.33,-33.09,-35.41,0,*73
1508382137.53,2465,13.56,73806.8,0.35,-33.15,-35.35,0,*7A
1508382138.74,2466,13.56,73808.3,0.35,-32.97,-35.17,0,*72
1508382139.99,2467,13.56,73804.3,0.37,-32.97,-35.23,0,*76
1508382141.2,2468,13.56,73810.0,0.35,-33.15,-35.23,0,*70
1508382142.41,2469,13.56,73808.5,0.33,-33.37,-35.47,0,*75
1508382143.63,2470,13.56,73808.0,0.33,-32.91,-35.29,0,*78
1508382144.84,2471,13.56,73804.8,0.35,-33.15,-35.41,0,*7C
1508382146.06,2472,13.56,73806.8,0.33,-33.37,-35.47,0,*7F
1508382147.29,2473,13.56,73810.5,0.33,-33.21,-35.41,0,*7F
1508382148.56,2474,13.56,73810.3,0.33,-33.09,-35.41,0,*72
1508382149.79,2475,13.56,73808.3,0.33,-33.03,-35.41,0,*79
1508382150.99,2476,13.56,73808.0,0.35,-33.03,-35.29,0,*72
1508382152.22,2477,13.56,73812.5,0.33,-32.91,-35.23,0,*75
1508382153.43,2478,13.56,73814.3,0.33,-33.21,-35.29,0,*7A
1508382154.67,2479,13.56,73812.0,0.33,-33.21,-35.41,0,*75
1508382155.9,2480,13.56,73814.3,0.33,-33.03,-35.41,0,*73
1508382157.14,2481,13.56,73808.8,0.31,-33.09,-35.23,0,*7E
1508382158.35,2482,13.56,73812.3,0.31,-32.91,-35.23,0,*7D
1508382159.59,2483,13.56,73816.3,0.31,-33.09,-35.41,0,*78
1508382160.79,2484,13.56,73814.8,0.31,-32.91,-35.23,0,*7B
1508382162.03,2485,13.56,73816.5,0.33,-33.09,-35.29,0,*72
1508382163.27,2486,13.56,73812.8,0.33,-33.21,-35.41,0,*75
1508382164.51,2487,13.56,73814.5,0.33,-32.85,-35.13,0,*7C
1508382165.77,2488,13.56,73812.3,0.29,-33.09,-35.07,0,*78
1508382166.99,2489,13.56,73810.3,0.31,-32.85,-35.13,0,*70
1508382168.23,2490,13.56,73810.5,0.31,-32.85,-34.95,0,*77
1508382169.49,2491,13.56,73804.8,0.33,-32.75,-34.83,0,*7C
1508382170.75,2492,13.56,73804.0,0.33,-32.45,-34.53,0,*71
1508382172.0,2493,13.56,73798.5,0.33,-32.45,-34.35,0,*70
1508382173.18,2494,13.56,73800.0,0.35,-32.39,-34.41,0,*79
1508382174.36,2495,13.56,73800.0,0.35,-32.39,-34.41,0,*78
1508382175.58,2496,13.56,73796.0,0.35,-32.45,-34.47,0,*76
1508382176.77,2497,13.56,73796.5,0.35,-32.51,-34.59,0,*7D
1508382177.98,2498,13.56,73792.8,0.35,-32.63,-34.77,0,*7F
1508382179.2,2499,13.56,73802.5,0.35,-32.63,-34.77,0,*7E
1508382180.45,2500,13.56,73796.5,0.35,-32.79,-34.65,0,*77
1508382181.71,2501,13.56,73796.8,0.37,-32.63,-34.65,0,*7F
1508382182.93,2502,13.56,73798.3,0.37,-32.69,-34.77,0,*75
1508382184.15,2503,13.56,73796.3,0.35,-32.69,-34.65,0,*75
1508382185.39,2504,13.56,73798.5,0.37,-32.63,-34.77,0,*79
1508382186.62,2505,13.56,73796.8,0.37,-32.85,-34.89,0,*71
1508382187.84,2506,13.56,73796.0,0.39,-32.75,-34.77,0,*72
1508382189.07,2507,13.56,73802.3,0.39,-32.97,-34.83,0,*74
1508382190.3,2508,13.56,73798.3,0.37,-32.97,-34.89,0,*7F
1508382191.53,2509,13.56,73794.5,0.37,-32.97,-35.17,0,*78
1508382192.76,2510,13.56,73792.5,0.37,-33.21,-35.23,0,*7B
1508382193.97,2511,13.56,73796.3,0.39,-33.27,-35.17,0,*75
1508382195.19,2512,13.56,73794.8,0.37,-33.15,-35.23,0,*7E
1508382196.46,2513,13.56,73792.0,0.37,-33.49,-35.41,0,*72
1508382197.68,2514,13.56,73794.8,0.35,-33.37,-35.41,0,*7E
1508382198.89,2515,13.56,73788.3,0.33,-33.21,-35.13,0,*79
1508382200.13,2516,13.56,73792.0,0.35,-33.09,-35.07,0,*73
1508382201.35,2517,13.56,73792.8,0.35,-32.97,-35.01,0,*72
1508382202.58,2518,13.56,73792.5,0.35,-32.97,-35.07,0,*7B
1508382203.77,2519,13.56,73792.5,0.35,-33.03,-35.17,0,*77
1508382205.03,2520,13.56,73792.0,0.33,-33.09,-35.07,0,*70
1508382206.25,2521,13.56,73792.3,0.35,-32.85,-34.89,0,*75
1508382207.48,2522,13.56,73794.0,0.35,-32.97,-35.07,0,*72
1508382208.67,2523,13.56,73792.0,0.35,-33.15,-35.01,0,*7E
1508382209.93,2524,13.56,73792.0,0.33,-33.09,-35.23,0,*72
1508382211.15,2525,13.56,73796.5,0.33,-33.21,-35.29,0,*73
1508382212.38,2526,13.56,73796.8,0.33,-33.09,-35.13,0,*73
1508382213.59,2527,13.56,73794.3,0.33,-33.03,-35.13,0,*78
1508382214.83,2528,13.56,73796.0,0.33,-32.85,-34.89,0,*7A
1508382216.09,2529,13.56,73796.0,0.33,-32.85,-34.83,0,*71
1508382217.3,2530,13.56,73796.8,0.35,-32.97,-34.89,0,*76
1508382218.55,2531,13.56,73798.3,0.33,-32.75,-34.83,0,*77
1508382219.79,2532,13.56,73798.8,0.33,-33.03,-34.95,0,*73
1508382221.06,2533,13.56,73802.0,0.33,-32.75,-34.65,0,*7D
1508382222.27,2534,13.56,73798.0,0.35,-32.63,-34.59,0,*74
1508382223.51,2535,13.56,73796.5,0.33,-32.75,-34.71,0,*7E
1508382224.72,2536,13.56,73800.0,0.35,-32.85,-34.89,0,*73
1508382225.96,2537,13.56,73800.8,0.33,-32.91,-34.65,0,*73
1508382227.2,2538,13.56,73798.0,0.35,-32.63,-34.65,0,*77
1508382228.4,2539,13.56,73806.5,0.35,-32.69,-34.77,0,*7F
1508382229.6,2540,13.56,73802.3,0.35,-32.69,-34.77,0,*71
1508382230.79,2541,13.56,73800.8,0.35,-32.51,-34.59,0,*77
1508382232.0,2542,13.56,73802.8,0.35,-32.51,-34.65,0,*7B
1508382233.22,2543,13.56,73804.0,0.35,-32.51,-34.65,0,*7A
1508382234.44,2544,13.56,73800.0,0.35,-32.63,-34.77,0,*7F
1508382235.68,2545,13.56,73806.3,0.35,-32.85,-34.83,0,*7D
1508382236.89,2546,13.56,73800.8,0.35,-32.63,-34.77,0,*7D
1508382238.13,2547,13.56,73804.3,0.37,-32.69,-34.83,0,*7F
1508382239.36,2548,13.56,73806.5,0.37,-32.63,-34.59,0,*7D
1508382240.56,2549,13.56,73802.8,0.39,-32.45,-34.41,0,*7F
1508382241.8,2550,13.56,73802.0,0.37,-32.79,-34.77,0,*73
1508382243.01,2551,13.56,73800.8,0.39,-32.63,-34.71,0,*71
1508382244.25,2552,13.56,73802.8,0.37,-32.69,-34.83,0,*7B
1508382245.44,2553,13.56,73800.8,0.39,-32.57,-34.71,0,*74
1508382246.67,2554,13.56,73800.3,0.37,-32.79,-34.89,0,*76
1508382247.92,2555,13.56,73806.5,0.39,-32.75,-34.95,0,*78
1508382249.17,2556,13.56,73806.3,0.37,-32.97,-35.23,0,*75
1508382250.38,2557,13.56,73804.8,0.39,-33.09,-35.17,0,*7B
1508382251.64,2558,13.56,73802.0,0.37,-33.31,-35.41,0,*72
1508382252.88,2559,13.56,73804.3,0.37,-33.49,-35.59,0,*75
1508382254.12,2560,13.56,73810.0,0.37,-33.21,-35.41,0,*78
1508382255.38,2561,13.56,73808.3,0.37,-33.31,-35.53,0,*7B
1508382256.62,2562,13.56,73808.5,0.37,-33.37,-35.53,0,*7E
1508382257.83,2563,13.56,73808.0,0.37,-33.37,-35.59,0,*75
1508382259.08,2564,13.56,73812.5,0.35,-33.31,-35.41,0,*7F
1508382260.32,2565,13.56,73808.8,0.33,-33.37,-35.41,0,*7E
1508382261.56,2566,13.56,73808.8,0.35,-33.31,-35.41,0,*7D
1508382262.77,2567,13.56,73808.3,0.33,-33.55,-35.59,0,*71
1508382263.98,2568,13.56,73814.3,0.35,-33.37,-35.53,0,*76
1508382265.22,2569,13.56,73810.8,0.33,-33.21,-35.41,0,*75
1508382266.48,2570,13.56,73810.3,0.33,-33.27,-35.41,0,*7B
1508382267.74,2571,13.56,73810.3,0.33,-33.27,-35.41,0,*7A
1508382268.98,2572,13.56,73810.0,0.33,-33.37,-35.41,0,*78
1508382270.21,2573,13.56,73808.0,0.33,-33.55,-35.65,0,*7B
1508382271.45,2574,13.56,73812.5,0.33,-33.61,-35.59,0,*74
1508382272.64,2575,13.56,73812.5,0.31,-33.67,-35.77,0,*7D
1508382273.88,2576,13.56,73814.0,0.31,-33.43,-35.41,0,*7D
1508382275.12,2577,13.56,73810.5,0.29,-32.91,-34.95,0,*73
1508382276.35,2578,13.56,73808.0,0.31,-32.75,-34.83,0,*78
1508382277.56,2579,13.56,73808.0,0.31,-33.21,-35.23,0,*72
1508382278.77,2580,13.56,73806.8,0.31,-33.21,-35.23,0,*74
1508382280.01,2581,13.56,73810.3,0.31,-33.27,-35.41,0,*77
1508382281.23,2582,13.56,73806.0,0.31,-33.27,-35.29,0,*7A
1508382282.47,2583,13.56,73804.8,0.31,-33.09,-34.95,0,*71
1508382283.66,2584,13.56,73808.5,0.31,-32.91,-35.13,0,*79
1508382284.87,2585,13.56,73812.0,0.31,-33.03,-35.07,0,*77
1508382286.1,2586,13.56,73810.3,0.29,-33.09,-35.17,0,*76
1508382287.34,2587,13.56,73808.8,0.31,-32.85,-34.83,0,*77
1508382288.55,2588,13.56,73808.8,0.31,-32.91,-34.95,0,*7A
1508382289.77,2589,13.56,73810.8,0.31,-32.69,-34.53,0,*76
1508382290.98,2590,13.56,73808.3,0.31,-32.51,-34.53,0,*75
1508382292.2,2591,13.56,73804.8,0.31,-32.69,-34.53,0,*7F
1508382293.45,2592,13.56,73804.5,0.33,-32.69,-34.65,0,*7B
1508382294.64,2593,13.56,73802.8,0.35,-32.69,-34.47,0,*7C
1508382295.91,2594,13.56,73804.5,0.33,-32.75,-34.65,0,*70
1508382297.12,2595,13.56,73806.8,0.33,-33.03,-34.71,0,*74
1508382298.37,2596,13.56,73808.8,0.33,-32.69,-34.65,0,*7F
1508382299.58,2597,13.56,73804.8,0.35,-32.85,-34.89,0,*78
1508382300.81,2598,13.56,73806.8,0.35,-32.97,-34.83,0,*7E
1508382302.03,2599,13.56,73804.0,0.35,-32.85,-35.01,0,*77
1508382303.27,2600,13.56,73804.3,0.33,-33.21,-35.23,0,*7D
1508382304.48,2601,13.56,73806.5,0.35,-33.37,-35.35,0,*7A
1508382305.7,2602,13.56,73802.8,0.33,-33.55,-35.29,0,*76
1508382306.94,2603,13.56,73804.5,0.33,-33.43,-35.29,0,*70
1508382308.17,2604,13.56,73806.0,0.33,-33.27,-35.13,0,*7C
1508382309.42,2605,13.56,73804.0,0.29,-33.31,-35.29,0,*78
1508382310.63,2606,13.56,73804.3,0.31,-33.27,-35.13,0,*7C
1508382311.87,2607,13.56,73806.0,0.31,-33.09,-35.07,0,*74
1508382313.08,2608,13.56,73802.8,0.31,-33.21,-35.07,0,*71
1508382314.29,2609,13.56,73796.8,0.31,-33.27,-35.13,0,*73
1508382315.51,2610,13.56,73800.3,0.31,-33.43,-35.29,0,*70
1508382316.78,2611,13.5,73796.0,0.29,-33.49,-35.35,0,*7F
1508382317.97,2612,13.56,73800.5,0.31,-33.55,-35.29,0,*75
1508382319.18,2613,13.56,73806.3,0.31,-33.61,-35.47,0,*7B
1508382320.44,2614,13.56,73802.3,0.29,-33.43,-35.35,0,*70
1508382321.66,2615,13.56,73804.8,0.31,-33.43,-35.29,0,*75
1508382322.9,2616,13.56,73806.3,0.29,-33.43,-35.29,0,*7F
1508382324.14,2617,13.56,73806.0,0.29,-33.31,-35.29,0,*7B
1508382325.41,2618,13.56,73810.3,0.29,-33.43,-35.35,0,*7C
1508382326.65,2619,13.56,73808.5,0.27,-33.49,-35.35,0,*79
1508382327.87,2620,13.56,73810.8,0.27,-33.43,-35.29,0,*74
1508382329.11,2621,13.56,73808.0,0.29,-33.31,-35.17,0,*73
1508382330.37,2622,13.56,73808.3,0.29,-33.49,-35.35,0,*7F
1508382331.59,2623,13.56,73808.5,0.27,-33.61,-35.47,0,*7F
1508382332.8,2624,13.56,73810.8,0.27,-33.61,-35.47,0,*78
1508382334.02,2625,13.56,73808.5,0.27,-32.79,-34.89,0,*72
1508382335.23,2626,13.56,73812.0,0.27,-32.75,-34.59,0,*70
1508382336.45,2627,13.56,73810.3,0.27,-32.57,-34.53,0,*7B
1508382337.63,2628,13.56,73806.8,0.27,-32.57,-34.41,0,*77
1508382338.84,2629,13.56,73806.0,0.27,-32.63,-34.41,0,*71
1508382340.08,2630,13.56,73804.0,0.27,-32.63,-34.53,0,*7A
1508382341.33,2631,13.56,73808.0,0.27,-32.75,-34.53,0,*7C
1508382342.55,2632,13.56,73806.5,0.27,-32.57,-34.53,0,*7F
1508382343.76,2633,13.56,73800.8,0.27,-32.75,-34.71,0,*7E
1508382345.0,2634,13.56,73800.3,0.29,-32.97,-34.89,0,*7C
1508382346.23,2635,13.56,73802.0,0.29,-33.09,-34.89,0,*7B
1508382347.44,2636,13.56,73800.0,0.31,-33.09,-34.89,0,*71
1508382348.71,2637,13.56,73802.8,0.29,-32.97,-34.95,0,*72
1508382349.95,2638,13.56,73800.3,0.29,-32.79,-34.77,0,*71
1508382351.19,2639,13.56,73798.3,0.29,-32.79,-34.71,0,*76
1508382352.4,2640,13.5,73792.8,0.31,-33.03,-34.95,0,*77
1508382353.64,2641,13.56,73798.0,0.29,-32.97,-34.89,0,*7E
1508382354.88,2642,13.56,73792.5,0.29,-32.75,-34.59,0,*7C
1508382356.1,2643,13.56,73794.5,0.27,-32.75,-34.71,0,*79
1508382357.3,2644,13.56,73794.5,0.29,-32.91,-34.89,0,*7D
1508382358.49,2645,13.56,73798.5,0.27,-33.15,-35.13,0,*7D
1508382359.73,2646,13.56,73796.8,0.27,-33.09,-34.95,0,*7C
1508382360.97,2647,13.56,73796.5,0.23,-32.85,-34.83,0,*7B
1508382362.18,2648,13.56,73798.5,0.27,-32.91,-34.95,0,*72
1508382363.4,2649,13.56,73800.0,0.27,-32.91,-34.95,0,*73
1508382364.61,2650,13.56,73800.0,0.27,-32.85,-34.89,0,*73
1508382365.85,2651,13.56,73800.8,0.23,-32.97,-35.07,0,*72
1508382367.03,2652,13.56,73800.3,0.23,-33.15,-35.17,0,*7B
1508382368.25,2653,13.56,73802.5,0.27,-33.09,-35.17,0,*73
1508382369.46,2654,13.56,73800.5,0.27,-33.21,-35.35,0,*7E
1508382370.7,2655,13.56,73800.0,0.23,-32.63,-34.83,0,*70
1508382371.95,2656,13.56,73806.5,0.23,-32.79,-34.95,0,*7F
1508382373.19,2657,13.56,73804.8,0.23,-32.79,-34.95,0,*7E
1508382374.44,2658,13.56,73804.3,0.23,-32.63,-34.65,0,*75
1508382375.65,2659,13.56,73802.8,0.23,-32.63,-34.77,0,*77
1508382376.9,2660,13.56,73804.8,0.23,-32.63,-34.65,0,*7E
1508382378.09,2661,13.56,73804.5,0.23,-32.69,-34.77,0,*76
1508382379.33,2662,13.56,73808.3,0.21,-32.85,-34.89,0,*74
1508382380.55,2663,13.56,73808.0,0.23,-32.57,-34.65,0,*7A
1508382381.73,2664,13.56,73806.3,0.23,-32.39,-34.41,0,*73
1508382382.92,2665,13.56,73810.3,0.23,-32.57,-34.59,0,*73
1508382384.1,2666,13.56,73806.3,0.23,-32.23,-34.41,0,*7A
1508382385.28,2667,13.56,73800.3,0.27,-32.35,-34.41,0,*78
1508382386.45,2668,13.56,73800.8,0.27,-32.35,-34.25,0,*75
1508382387.68,2669,13.56,73804.8,0.23,-32.29,-34.31,0,*78
1508382388.9,2670,13.56,73800.0,0.27,-32.19,-34.07,0,*72
1508382390.13,2671,13.56,73800.8,0.27,-32.19,-34.35,0,*72
1508382391.32,2672,13.56,73804.0,0.23,-32.39,-34.59,0,*7D
1508382392.53,2673,13.56,73802.8,0.27,-32.01,-34.19,0,*77
1508382393.77,2674,13.5,73792.0,0.27,-31.85,-33.89,0,*71
1508382394.97,2675,13.56,73796.8,0.27,-32.01,-34.07,0,*7E
1508382396.17,2676,13.56,73794.5,0.27,-32.39,-34.35,0,*77
1508382397.38,2677,13.56,73806.0,0.29,-32.39,-34.41,0,*7B
1508382398.58,2678,13.56,73806.0,0.29,-32.23,-34.41,0,*7F
1508382399.78,2679,13.56,73800.3,0.29,-32.35,-34.41,0,*79
1508382401.02,2680,13.56,73800.8,0.29,-32.75,-34.77,0,*7E
1508382402.26,2681,13.56,73804.3,0.29,-32.63,-34.77,0,*78
1508382403.51,2682,13.56,73804.8,0.29,-32.75,-34.77,0,*7C
1508382404.74,2683,13.56,73810.3,0.29,-32.75,-34.89,0,*7C
1508382405.98,2684,13.56,73806.8,0.29,-32.79,-34.89,0,*77
1508382407.22,2685,13.56,73806.8,0.29,-32.63,-34.77,0,*7C
1508382408.43,2686,13.56,73808.5,0.27,-32.63,-34.89,0,*70
1508382409.65,2687,13.56,73808.5,0.27,-32.75,-34.89,0,*76
1508382410.84,2688,13.56,73810.3,0.27,-32.57,-34.59,0,*74
1508382412.03,2689,13.56,73808.8,0.27,-32.51,-34.59,0,*73
1508382413.22,2690,13.56,73806.8,0.27,-32.51,-34.59,0,*7B
1508382414.44,2691,13.56,73802.8,0.29,-32.23,-34.35,0,*7B
1508382415.68,2692,13.56,73808.5,0.29,-32.39,-34.53,0,*73
1508382416.92,2693,13.56,73804.5,0.29,-32.39,-34.53,0,*72
1508382418.16,2694,13.56,73806.3,0.29,-32.35,-34.53,0,*79
1508382419.42,2695,13.56,73802.8,0.29,-32.63,-34.53,0,*7B
1508382420.65,2696,13.56,73806.3,0.29,-32.35,-34.53,0,*7B
1508382421.85,2697,13.56,73808.5,0.29,-32.35,-34.41,0,*79
1508382423.04,2698,13.56,73812.5,0.31,-32.51,-34.47,0,*7B
1508382424.26,2699,13.56,73814.3,0.29,-32.57,-34.71,0,*70
1508382425.47,2700,13.56,73812.5,0.31,-32.57,-34.53,0,*78
1508382426.71,2701,13.56,73812.3,0.29,-32.79,-34.89,0,*7B
1508382427.92,2702,13.56,73814.3,0.29,-33.15,-35.13,0,*71
1508382429.16,2703,13.56,73814.3,0.29,-33.27,-35.29,0,*78
1508382430.43,2704,13.56,73812.5,0.29,-33.31,-35.35,0,*75
1508382431.66,2705,13.56,73810.8,0.29,-32.97,-35.13,0,*7D
1508382432.88,2706,13.5,73808.8,0.29,-33.15,-35.13,0,*75
1508382434.11,2707,13.56,73814.5,0.29,-32.79,-34.89,0,*7D
1508382435.33,2708,13.56,73814.8,0.27,-32.79,-34.89,0,*7C
1508382436.51,2709,13.56,73814.5,0.27,-32.91,-34.89,0,*7B
1508382437.7,2710,13.56,73812.5,0.27,-33.15,-35.13,0,*7C
1508382438.91,2711,13.56,73812.5,0.27,-32.97,-34.89,0,*74
1508382440.1,2712,13.56,73814.8,0.27,-32.91,-34.77,0,*70
1508382441.32,2713,13.56,73810.5,0.27,-32.79,-34.77,0,*77
1508382442.54,2714,13.56,73812.5,0.27,-32.79,-34.77,0,*70
1508382443.78,2715,13.56,73814.3,0.23,-32.85,-34.65,0,*75
1508382445.0,2716,13.56,73810.3,0.27,-32.75,-34.59,0,*72
1508382446.22,2717,13.56,73810.0,0.27,-32.75,-34.59,0,*73
1508382447.46,2718,13.56,73810.8,0.27,-32.75,-34.53,0,*76
1508382448.68,2719,13.56,73810.3,0.27,-32.75,-34.59,0,*7D
1508382449.89,2720,13.5,73808.3,0.27,-32.97,-34.89,0,*76
1508382451.11,2721,13.56,73812.3,0.27,-32.79,-34.77,0,*76
1508382452.36,2722,13.56,73814.3,0.23,-32.75,-34.65,0,*7E
1508382453.6,2723,13.56,73810.0,0.27,-32.63,-34.53,0,*79
1508382454.84,2724,13.56,73814.0,0.27,-32.75,-34.53,0,*79
1508382456.08,2725,13.56,73812.3,0.27,-32.75,-34.53,0,*78
1508382457.3,2726,13.56,73812.8,0.23,-32.85,-34.59,0,*7A
1508382458.51,2727,13.56,73814.5,0.27,-32.75,-34.41,0,*79
1508382459.69,2728,13.56,73808.3,0.27,-32.57,-34.41,0,*76
1508382460.88,2729,13.56,73810.8,0.27,-32.57,-34.25,0,*75
1508382462.09,2730,13.56,73808.5,0.27,-32.39,-34.01,0,*73
1508382463.33,2731,13.56,73806.3,0.29,-32.35,-34.01,0,*70
1508382464.56,2732,13.56,73804.3,0.29,-32.57,-34.35,0,*70
1508382465.83,2733,13.5,73802.8,0.29,-32.79,-34.53,0,*7D
1508382467.09,2734,13.56,73806.5,0.29,-32.75,-34.35,0,*76
1508382468.28,2735,13.56,73806.5,0.31,-32.69,-34.47,0,*76
1508382469.52,2736,13.56,73806.0,0.29,-33.09,-34.59,0,*74
1508382470.76,2737,13.56,73804.8,0.31,-32.85,-34.53,0,*73
1508382471.97,2738,13.56,73804.8,0.29,-33.15,-34.71,0,*7D
1508382473.18,2739,13.56,73802.3,0.27,-33.27,-34.89,0,*74
1508382474.39,2740,13.5,73800.0,0.27,-33.27,-34.89,0,*7A
1508382475.64,2741,13.56,73806.0,0.23,-33.31,-34.95,0,*75
1508382476.88,2742,13.56,73804.0,0.27,-33.27,-34.95,0,*75
1508382478.09,2743,13.56,73804.0,0.23,-33.15,-34.65,0,*7E
1508382479.34,2744,13.56,73806.8,0.27,-33.27,-34.95,0,*73
1508382480.55,2745,13.56,73806.8,0.23,-33.49,-35.17,0,*75
1508382481.79,2746,13.56,73808.3,0.23,-33.49,-35.07,0,*77
1508382482.99,2747,13.56,73808.0,0.23,-33.21,-34.77,0,*7E
1508382484.17,2748,13.56,73808.5,0.23,-33.15,-34.77,0,*76
1508382485.37,2749,13.56,73808.0,0.23,-33.03,-34.77,0,*70
1508382486.61,2750,13.56,73810.8,0.23,-32.97,-34.65,0,*77
1508382487.82,2751,13.56,73810.0,0.23,-33.15,-34.65,0,*7D
1508382489.04,2752,13.56,73810.8,0.23,-33.03,-34.65,0,*79
1508382490.26,2753,13.56,73808.5,0.21,-33.03,-34.71,0,*7F
1508382491.49,2754,13.56,73808.3,0.21,-32.91,-34.65,0,*77
1508382492.71,2755,13.5,73808.0,0.19,-32.91,-34.65,0,*7D
1508382493.93,2756,13.56,73808.3,0.19,-33.21,-34.65,0,*74
1508382495.17,2757,13.56,73808.3,0.19,-33.27,-34.83,0,*7B
1508382496.39,2758,13.56,73810.8,0.21,-33.37,-35.01,0,*75
1508382497.61,2759,13.56,73810.8,0.19,-33.43,-35.01,0,*7C
1508382498.82,2760,13.56,73806.8,0.21,-33.55,-35.01,0,*7A
1508382500.01,2761,13.56,73806.8,0.19,-33.21,-34.89,0,*72
1508382501.22,2762,13.56,73810.5,0.19,-33.27,-34.89,0,*77
1508382502.41,2763,13.56,73808.0,0.19,-33.03,-34.71,0,*77
1508382503.6,2764,13.56,73810.3,0.15,-33.15,-34.77,0,*7D
1508382504.81,2765,13.5,73806.0,0.17,-33.15,-34.77,0,*7E
1508382506.01,2766,13.56,73810.5,0.17,-33.15,-34.77,0,*7D